SDM232 USSS-UWGG

Flight info

Callsign SDM232
Flight time 1h 28m
Altitude 38000
Route UMTEK6C UMTEK DCT LUNAG DCT INGEN DCT KERUN DCT KAMZA DCT UMPER DCT GILAM GILAM2N
Aircraft B77W/H-SDE1E2E3FGHIJ2J3J4J5M1RWXY/LB1D1

Departure

Time 2026-04-18 04:52
Airport Koltsovo Airport (USSS)

Arrival

Time 2026-04-18 06:21
Airport Nizhny Novgorod / Strigino International Airport (UWGG)
Time Latitude Longitude Altitude Speed Heading
2026-04-18 04:30 56.74930 60.80373 782 ft 0 kts 360°
2026-04-18 04:41 56.74934 60.80371 783 ft 3 kts 358°
2026-04-18 04:41 56.74915 60.80370 783 ft 3 kts 14°
2026-04-18 04:41 56.74897 60.80357 783 ft 3 kts 44°
2026-04-18 04:41 56.74886 60.80329 783 ft 3 kts 75°
2026-04-18 04:42 56.74883 60.80293 783 ft 3 kts 89°
2026-04-18 04:42 56.74883 60.80258 783 ft 2 kts 90°
2026-04-18 04:42 56.74883 60.80249 783 ft 0 kts 89°
2026-04-18 04:43 56.74883 60.80255 783 ft 1 kts 92°
2026-04-18 04:43 56.74874 60.80305 783 ft 7 kts 116°
2026-04-18 04:44 56.74855 60.80413 783 ft 9 kts 97°
2026-04-18 04:44 56.74851 60.80532 783 ft 9 kts 91°
2026-04-18 04:44 56.74832 60.80640 783 ft 9 kts 141°
2026-04-18 04:44 56.74766 60.80645 783 ft 10 kts 181°
2026-04-18 04:45 56.74699 60.80646 783 ft 10 kts 173°
2026-04-18 04:45 56.74662 60.80735 783 ft 10 kts 97°
2026-04-18 04:45 56.74660 60.80857 783 ft 10 kts 91°
2026-04-18 04:45 56.74660 60.80979 783 ft 10 kts 89°
2026-04-18 04:46 56.74659 60.81102 783 ft 10 kts 90°
2026-04-18 04:46 56.74659 60.81224 783 ft 10 kts 90°
2026-04-18 04:46 56.74659 60.81347 783 ft 10 kts 90°
2026-04-18 04:46 56.74659 60.81469 783 ft 10 kts 90°
2026-04-18 04:47 56.74659 60.81591 783 ft 10 kts 90°
2026-04-18 04:47 56.74659 60.81714 783 ft 10 kts 90°
2026-04-18 04:47 56.74659 60.81836 783 ft 10 kts 90°
2026-04-18 04:47 56.74658 60.81957 783 ft 10 kts 90°
2026-04-18 04:48 56.74659 60.82073 783 ft 8 kts 90°
2026-04-18 04:48 56.74652 60.82172 783 ft 8 kts 117°
2026-04-18 04:48 56.74616 60.82200 783 ft 0 kts 178°
2026-04-18 04:49 56.74614 60.82200 783 ft 2 kts 178°
2026-04-18 04:49 56.74553 60.82203 784 ft 14 kts 178°
2026-04-18 04:49 56.74457 60.82200 786 ft 14 kts 183°
2026-04-18 04:50 56.74355 60.82186 783 ft 15 kts 185°
2026-04-18 04:50 56.74251 60.82171 783 ft 15 kts 184°
2026-04-18 04:50 56.74164 60.82161 782 ft 9 kts 183°
2026-04-18 04:50 56.74092 60.82145 778 ft 13 kts 203°
2026-04-18 04:51 56.74068 60.82017 778 ft 11 kts 274°
2026-04-18 04:51 56.74075 60.81883 777 ft 11 kts 275°
2026-04-18 04:51 56.74088 60.81536 782 ft 55 kts 274°
2026-04-18 04:51 56.74140 60.80262 779 ft 145 kts 274°
2026-04-18 04:52 56.74238 60.78093 1164 ft 172 kts 275°
2026-04-18 04:52 56.74331 60.76087 2675 ft 147 kts 272°
2026-04-18 04:52 56.74394 60.74253 3576 ft 153 kts 273°
2026-04-18 04:52 56.74467 60.72120 3868 ft 183 kts 273°
2026-04-18 04:53 56.74579 60.69618 4243 ft 208 kts 276°
2026-04-18 04:53 56.74764 60.66937 5001 ft 219 kts 277°
2026-04-18 04:53 56.74967 60.64129 5768 ft 228 kts 277°
2026-04-18 04:53 56.75177 60.61229 6690 ft 231 kts 277°
2026-04-18 04:54 56.75386 60.58302 7603 ft 235 kts 276°
2026-04-18 04:54 56.75598 60.55309 8482 ft 240 kts 276°
2026-04-18 04:54 56.75809 60.52306 9352 ft 244 kts 277°
2026-04-18 04:54 56.76025 60.49203 10199 ft 249 kts 277°
2026-04-18 04:55 56.76249 60.45969 10703 ft 268 kts 276°
2026-04-18 04:55 56.76492 60.42410 10930 ft 297 kts 276°
2026-04-18 04:55 56.76760 60.38482 11214 ft 323 kts 276°
2026-04-18 04:56 56.77329 60.30073 13030 ft 341 kts 276°
2026-04-18 04:56 56.77619 60.25756 14114 ft 345 kts 276°
2026-04-18 04:56 56.77910 60.21379 15123 ft 349 kts 276°
2026-04-18 04:56 56.78200 60.17008 16092 ft 354 kts 276°
2026-04-18 04:57 56.78500 60.12460 17078 ft 359 kts 276°
2026-04-18 04:57 56.78799 60.07901 18053 ft 364 kts 276°
2026-04-18 04:57 56.79096 60.03332 18862 ft 370 kts 276°
2026-04-18 04:57 56.79400 59.98635 19687 ft 375 kts 276°
2026-04-18 04:58 56.79706 59.93888 20595 ft 378 kts 276°
2026-04-18 04:58 56.80011 59.89108 21436 ft 382 kts 276°
2026-04-18 04:58 56.80320 59.84256 22199 ft 387 kts 276°
2026-04-18 04:58 56.80630 59.79349 22954 ft 392 kts 275°
2026-04-18 04:59 56.80941 59.74375 23690 ft 397 kts 275°
2026-04-18 04:59 56.81255 59.69335 24314 ft 401 kts 275°
2026-04-18 04:59 56.81566 59.64313 24934 ft 405 kts 275°
2026-04-18 04:59 56.81883 59.59180 25547 ft 408 kts 275°
2026-04-18 05:00 56.82198 59.54009 26150 ft 412 kts 275°
2026-04-18 05:00 56.82515 59.48790 26722 ft 416 kts 275°
2026-04-18 05:00 56.82833 59.43508 27258 ft 420 kts 275°
2026-04-18 05:00 56.83152 59.38180 27794 ft 424 kts 275°
2026-04-18 05:01 56.83471 59.32805 28322 ft 427 kts 275°
2026-04-18 05:01 56.83791 59.27385 28788 ft 431 kts 275°
2026-04-18 05:01 56.84110 59.21926 29263 ft 434 kts 275°
2026-04-18 05:01 56.84432 59.16413 29711 ft 437 kts 275°
2026-04-18 05:02 56.84751 59.10869 30198 ft 438 kts 275°
2026-04-18 05:02 56.85037 59.05340 30717 ft 436 kts 272°
2026-04-18 05:02 56.85170 58.99825 31361 ft 432 kts 271°
2026-04-18 05:02 56.85268 58.94424 31962 ft 429 kts 271°
2026-04-18 05:03 56.85357 58.88978 32396 ft 429 kts 271°
2026-04-18 05:03 56.85443 58.83518 32798 ft 430 kts 271°
2026-04-18 05:03 56.85530 58.78055 33242 ft 430 kts 271°
2026-04-18 05:03 56.85618 58.72611 33722 ft 429 kts 271°
2026-04-18 05:04 56.85706 58.67163 34165 ft 428 kts 271°
2026-04-18 05:04 56.85792 58.61724 34481 ft 429 kts 271°
2026-04-18 05:04 56.85878 58.56265 34751 ft 430 kts 271°
2026-04-18 05:04 56.85962 58.50795 35041 ft 431 kts 271°
2026-04-18 05:05 56.86043 58.45389 35359 ft 431 kts 271°
2026-04-18 05:05 56.86122 58.39898 35656 ft 432 kts 271°
2026-04-18 05:05 56.86199 58.34382 35951 ft 433 kts 271°
2026-04-18 05:05 56.86275 58.28867 36253 ft 433 kts 271°
2026-04-18 05:06 56.86347 58.23362 36559 ft 434 kts 271°
2026-04-18 05:06 56.86417 58.17844 36841 ft 434 kts 271°
2026-04-18 05:06 56.86485 58.12319 37111 ft 435 kts 271°
2026-04-18 05:06 56.86551 58.06782 37389 ft 435 kts 271°
2026-04-18 05:07 56.86614 58.01253 37655 ft 436 kts 271°
2026-04-18 05:07 56.86674 57.95771 37939 ft 437 kts 271°
2026-04-18 05:07 56.86789 57.84569 38027 ft 441 kts 270°
2026-04-18 05:08 56.86893 57.73384 38019 ft 437 kts 270°
2026-04-18 05:08 56.86972 57.64182 38020 ft 435 kts 270°
2026-04-18 05:09 56.87058 57.53146 38028 ft 434 kts 270°
2026-04-18 05:09 56.87133 57.42110 38031 ft 433 kts 270°
2026-04-18 05:10 56.87199 57.31075 38027 ft 434 kts 270°
2026-04-18 05:10 56.87256 57.20036 37998 ft 435 kts 270°
2026-04-18 05:11 56.87303 57.08994 38027 ft 437 kts 270°
2026-04-18 05:11 56.87339 56.97853 38022 ft 439 kts 270°
2026-04-18 05:12 56.87366 56.86642 38051 ft 442 kts 270°
2026-04-18 05:12 56.87384 56.75462 38021 ft 443 kts 270°
2026-04-18 05:13 56.87392 56.64206 38013 ft 442 kts 270°
2026-04-18 05:13 56.87389 56.52968 38014 ft 441 kts 270°
2026-04-18 05:14 56.87376 56.41752 38006 ft 440 kts 269°
2026-04-18 05:14 56.87353 56.30569 38014 ft 439 kts 269°
2026-04-18 05:15 56.87321 56.19457 38010 ft 439 kts 269°
2026-04-18 05:15 56.87278 56.08312 38008 ft 438 kts 269°
2026-04-18 05:16 56.87226 55.97167 38008 ft 438 kts 269°
2026-04-18 05:16 56.87163 55.86016 38012 ft 438 kts 269°
2026-04-18 05:17 56.87091 55.74860 38002 ft 439 kts 269°
2026-04-18 05:17 56.87009 55.63755 38014 ft 440 kts 269°
2026-04-18 05:18 56.86916 55.52562 38011 ft 441 kts 269°
2026-04-18 05:18 56.86813 55.41339 38003 ft 442 kts 269°
2026-04-18 05:19 56.86701 55.30106 38012 ft 442 kts 268°
2026-04-18 05:19 56.86577 55.18859 38007 ft 442 kts 268°
2026-04-18 05:20 56.86444 55.07611 37995 ft 442 kts 268°
2026-04-18 05:20 56.86301 54.96363 38002 ft 442 kts 268°
2026-04-18 05:21 56.86147 54.85125 38007 ft 442 kts 268°
2026-04-18 05:21 56.85984 54.73955 38037 ft 442 kts 268°
2026-04-18 05:22 56.85810 54.62688 38010 ft 443 kts 268°
2026-04-18 05:22 56.85627 54.51438 38009 ft 442 kts 268°
2026-04-18 05:23 56.85432 54.40189 38001 ft 443 kts 268°
2026-04-18 05:23 56.85230 54.29005 38006 ft 442 kts 268°
2026-04-18 05:24 56.85016 54.17758 38009 ft 442 kts 268°
2026-04-18 05:24 56.84791 54.06516 38017 ft 442 kts 268°
2026-04-18 05:25 56.84557 53.95289 38016 ft 442 kts 268°
2026-04-18 05:25 56.84315 53.84130 38009 ft 442 kts 267°
2026-04-18 05:26 56.84060 53.72881 38006 ft 443 kts 267°
2026-04-18 05:26 56.83796 53.61635 38006 ft 443 kts 267°
2026-04-18 05:27 56.83523 53.50381 38007 ft 443 kts 267°
2026-04-18 05:27 56.83406 53.39116 38010 ft 444 kts 270°
2026-04-18 05:28 56.83504 53.27902 38001 ft 444 kts 270°
2026-04-18 05:28 56.83606 53.16596 38004 ft 445 kts 270°
2026-04-18 05:29 56.83683 53.05295 37995 ft 445 kts 270°
2026-04-18 05:29 56.83741 52.93977 37980 ft 445 kts 270°
2026-04-18 05:30 56.83788 52.82667 38000 ft 445 kts 270°
2026-04-18 05:30 56.83824 52.71350 38012 ft 445 kts 270°
2026-04-18 05:31 56.83850 52.60018 37985 ft 446 kts 270°
2026-04-18 05:31 56.83866 52.48763 37985 ft 445 kts 270°
2026-04-18 05:32 56.83872 52.37376 37979 ft 445 kts 269°
2026-04-18 05:32 56.83868 52.26143 37986 ft 445 kts 269°
2026-04-18 05:33 56.83854 52.14856 37983 ft 444 kts 269°
2026-04-18 05:33 56.83830 52.03557 37973 ft 445 kts 269°
2026-04-18 05:34 56.83795 51.92247 37981 ft 444 kts 269°
2026-04-18 05:34 56.83750 51.80947 37975 ft 445 kts 269°
2026-04-18 05:35 56.83695 51.69636 37983 ft 445 kts 269°
2026-04-18 05:35 56.83632 51.58382 37981 ft 445 kts 269°
2026-04-18 05:36 56.83500 51.47054 37964 ft 445 kts 267°
2026-04-18 05:36 56.83179 51.35758 37966 ft 445 kts 266°
2026-04-18 05:37 56.82829 51.24456 37976 ft 445 kts 266°
2026-04-18 05:37 56.82491 51.13147 37956 ft 446 kts 266°
2026-04-18 05:38 56.82155 51.01851 37963 ft 446 kts 266°
2026-04-18 05:38 56.81815 50.90625 37959 ft 446 kts 266°
2026-04-18 05:39 56.81462 50.79309 37958 ft 446 kts 266°
2026-04-18 05:39 56.81098 50.68001 37968 ft 446 kts 266°
2026-04-18 05:40 56.80723 50.56699 37963 ft 447 kts 266°
2026-04-18 05:40 56.80338 50.45381 37959 ft 447 kts 266°
2026-04-18 05:41 56.79942 50.34060 37948 ft 447 kts 266°
2026-04-18 05:41 56.79537 50.22749 37951 ft 447 kts 266°
2026-04-18 05:42 56.79123 50.11492 37953 ft 447 kts 266°
2026-04-18 05:42 56.78696 50.00177 37947 ft 447 kts 265°
2026-04-18 05:43 56.78260 49.88858 37948 ft 447 kts 265°
2026-04-18 05:43 56.77813 49.77550 37965 ft 447 kts 265°
2026-04-18 05:44 56.77356 49.66238 37964 ft 448 kts 265°
2026-04-18 05:44 56.76891 49.54988 37952 ft 448 kts 265°
2026-04-18 05:45 56.76412 49.43653 37950 ft 448 kts 265°
2026-04-18 05:45 56.75923 49.32324 37940 ft 448 kts 265°
2026-04-18 05:46 56.75423 49.20991 37948 ft 448 kts 265°
2026-04-18 05:46 56.74914 49.09669 37948 ft 448 kts 265°
2026-04-18 05:47 56.74395 48.98361 37946 ft 448 kts 265°
2026-04-18 05:47 56.73865 48.87044 37946 ft 448 kts 265°
2026-04-18 05:48 56.73325 48.75720 37969 ft 448 kts 265°
2026-04-18 05:48 56.72779 48.64466 37925 ft 449 kts 264°
2026-04-18 05:49 56.72283 48.53134 37931 ft 448 kts 268°
2026-04-18 05:49 56.72317 48.41783 37955 ft 448 kts 270°
2026-04-18 05:50 56.72387 48.30383 37930 ft 450 kts 270°
2026-04-18 05:50 56.72433 48.19042 37927 ft 450 kts 269°
2026-04-18 05:51 56.72459 48.07659 37932 ft 449 kts 269°
2026-04-18 05:51 56.72471 47.96272 37918 ft 448 kts 269°
2026-04-18 05:52 56.72472 47.84911 37932 ft 448 kts 269°
2026-04-18 05:52 56.72463 47.73548 37933 ft 449 kts 269°
2026-04-18 05:53 56.72444 47.62179 37918 ft 450 kts 269°
2026-04-18 05:53 56.72415 47.50770 37919 ft 450 kts 269°
2026-04-18 05:54 56.72383 47.41286 37919 ft 452 kts 269°
2026-04-18 05:54 56.72335 47.29837 37914 ft 451 kts 269°
2026-04-18 05:55 56.72276 47.18407 37918 ft 451 kts 269°
2026-04-18 05:55 56.72207 47.06987 37852 ft 452 kts 269°
2026-04-18 05:56 56.72168 47.01255 37005 ft 462 kts 268°
2026-04-18 05:56 56.72126 46.95450 36508 ft 456 kts 268°
2026-04-18 05:56 56.72083 46.89717 35905 ft 450 kts 268°
2026-04-18 05:56 56.72037 46.84058 35325 ft 444 kts 268°
2026-04-18 05:57 56.71940 46.72928 34220 ft 434 kts 268°
2026-04-18 05:57 56.71889 46.67460 33628 ft 429 kts 267°
2026-04-18 05:57 56.71835 46.62057 33022 ft 424 kts 267°
2026-04-18 05:58 56.71780 46.56732 32483 ft 418 kts 267°
2026-04-18 05:58 56.71724 46.51467 31945 ft 413 kts 267°
2026-04-18 05:58 56.71665 46.46264 31411 ft 408 kts 267°
2026-04-18 05:58 56.71606 46.41129 30880 ft 404 kts 266°
2026-04-18 05:59 56.71545 46.36056 30363 ft 399 kts 266°
2026-04-18 05:59 56.71483 46.31030 29817 ft 395 kts 266°
2026-04-18 05:59 56.71419 46.26061 29240 ft 390 kts 266°
2026-04-18 05:59 56.71354 46.21156 28709 ft 385 kts 266°
2026-04-18 06:00 56.71289 46.16321 28190 ft 380 kts 266°
2026-04-18 06:00 56.71222 46.11530 27701 ft 376 kts 266°
2026-04-18 06:00 56.71155 46.06806 27158 ft 372 kts 266°
2026-04-18 06:00 56.71086 46.02124 26664 ft 368 kts 265°
2026-04-18 06:01 56.71016 45.97478 26160 ft 364 kts 265°
2026-04-18 06:01 56.70945 45.92891 25668 ft 361 kts 265°
2026-04-18 06:01 56.70822 45.88407 25186 ft 357 kts 262°
2026-04-18 06:01 56.70578 45.83931 24704 ft 354 kts 262°
2026-04-18 06:02 56.70317 45.79500 24238 ft 351 kts 261°
2026-04-18 06:02 56.70053 45.75102 23768 ft 348 kts 261°
2026-04-18 06:02 56.69792 45.70731 23258 ft 346 kts 261°
2026-04-18 06:02 56.69532 45.66383 22741 ft 343 kts 261°
2026-04-18 06:03 56.69275 45.62074 22267 ft 340 kts 261°
2026-04-18 06:03 56.69017 45.57825 21791 ft 334 kts 260°
2026-04-18 06:03 56.68594 45.53819 20749 ft 322 kts 252°
2026-04-18 06:03 56.67970 45.49851 19459 ft 322 kts 252°
2026-04-18 06:04 56.67363 45.45941 18211 ft 322 kts 252°
2026-04-18 06:04 56.66756 45.42003 17195 ft 330 kts 252°
2026-04-18 06:04 56.66143 45.38014 16718 ft 326 kts 252°
2026-04-18 06:04 56.65534 45.34043 16245 ft 324 kts 252°
2026-04-18 06:05 56.64933 45.30120 15796 ft 321 kts 252°
2026-04-18 06:05 56.64336 45.26234 15349 ft 318 kts 252°
2026-04-18 06:05 56.63744 45.22384 14904 ft 315 kts 252°
2026-04-18 06:05 56.63161 45.18607 14482 ft 313 kts 252°
2026-04-18 06:06 56.62576 45.14825 14060 ft 310 kts 252°
2026-04-18 06:06 56.61990 45.11046 13623 ft 308 kts 252°
2026-04-18 06:06 56.61410 45.07311 13158 ft 306 kts 252°
2026-04-18 06:06 56.60832 45.03595 12727 ft 304 kts 252°
2026-04-18 06:07 56.60257 44.99907 12295 ft 302 kts 252°
2026-04-18 06:07 56.59684 44.96246 11876 ft 300 kts 252°
2026-04-18 06:07 56.59116 44.92615 11470 ft 298 kts 252°
2026-04-18 06:07 56.58550 44.89012 11067 ft 296 kts 252°
2026-04-18 06:08 56.57988 44.85439 10669 ft 294 kts 253°
2026-04-18 06:08 56.57430 44.81899 10401 ft 288 kts 253°
2026-04-18 06:08 56.56895 44.78510 10257 ft 278 kts 253°
2026-04-18 06:08 56.56371 44.75192 10129 ft 268 kts 253°
2026-04-18 06:09 56.55866 44.72007 10016 ft 258 kts 253°
2026-04-18 06:09 56.55379 44.68938 9903 ft 249 kts 253°
2026-04-18 06:09 56.54901 44.65935 9582 ft 247 kts 253°
2026-04-18 06:09 56.54425 44.62953 9296 ft 245 kts 253°
2026-04-18 06:10 56.53952 44.59993 8978 ft 243 kts 253°
2026-04-18 06:10 56.53490 44.57104 8678 ft 241 kts 253°
2026-04-18 06:10 56.53024 44.54198 8373 ft 239 kts 253°
2026-04-18 06:10 56.52561 44.51314 8069 ft 238 kts 253°
2026-04-18 06:11 56.52100 44.48446 7782 ft 236 kts 253°
2026-04-18 06:11 56.51638 44.45579 7489 ft 239 kts 253°
2026-04-18 06:11 56.51171 44.42682 7251 ft 239 kts 254°
2026-04-18 06:11 56.50707 44.39814 6998 ft 236 kts 254°
2026-04-18 06:12 56.50248 44.36974 6706 ft 235 kts 254°
2026-04-18 06:12 56.49787 44.34133 6393 ft 235 kts 254°
2026-04-18 06:12 56.49327 44.31294 6099 ft 235 kts 254°
2026-04-18 06:12 56.48874 44.28512 5801 ft 233 kts 254°
2026-04-18 06:13 56.48416 44.25698 5484 ft 233 kts 254°
2026-04-18 06:13 56.47959 44.22892 5190 ft 232 kts 254°
2026-04-18 06:13 56.47504 44.20105 4901 ft 231 kts 254°
2026-04-18 06:13 56.47047 44.17318 4600 ft 230 kts 254°
2026-04-18 06:14 56.46594 44.14550 4297 ft 229 kts 254°
2026-04-18 06:14 56.46141 44.11784 4003 ft 229 kts 253°
2026-04-18 06:14 56.45688 44.09034 3699 ft 228 kts 254°
2026-04-18 06:14 56.45238 44.06301 3436 ft 227 kts 253°
2026-04-18 06:15 56.44788 44.03574 3156 ft 226 kts 253°
2026-04-18 06:15 56.44328 44.00876 3024 ft 221 kts 250°
2026-04-18 06:15 56.43745 43.98313 2966 ft 222 kts 247°
2026-04-18 06:15 56.43123 43.95756 2971 ft 227 kts 246°
2026-04-18 06:16 56.42489 43.93129 2964 ft 229 kts 247°
2026-04-18 06:16 56.41857 43.90492 2950 ft 228 kts 247°
2026-04-18 06:16 56.41233 43.87880 2949 ft 221 kts 247°
2026-04-18 06:16 56.40446 43.85652 2935 ft 205 kts 220°
2026-04-18 06:17 56.39175 43.84623 2962 ft 201 kts 196°
2026-04-18 06:17 56.37801 43.84051 2967 ft 204 kts 195°
2026-04-18 06:17 56.36412 43.83514 2787 ft 205 kts 194°
2026-04-18 06:17 56.35042 43.83008 2503 ft 195 kts 193°
2026-04-18 06:18 56.33747 43.82536 2283 ft 187 kts 192°
2026-04-18 06:18 56.32483 43.82070 2024 ft 180 kts 192°
2026-04-18 06:18 56.31281 43.81628 1752 ft 171 kts 193°
2026-04-18 06:18 56.30177 43.81221 1527 ft 158 kts 192°
2026-04-18 06:19 56.29136 43.80838 1300 ft 149 kts 193°
2026-04-18 06:19 56.28136 43.80470 1115 ft 144 kts 193°
2026-04-18 06:19 56.27161 43.80110 915 ft 144 kts 192°
2026-04-18 06:19 56.26184 43.79761 727 ft 141 kts 191°
2026-04-18 06:20 56.25230 43.79406 545 ft 141 kts 193°
2026-04-18 06:20 56.24273 43.79057 346 ft 139 kts 191°
2026-04-18 06:20 56.23384 43.78725 271 ft 118 kts 191°
2026-04-18 06:20 56.22737 43.78487 271 ft 74 kts 192°
2026-04-18 06:21 56.22381 43.78358 271 ft 30 kts 191°
2026-04-18 06:21 56.22253 43.78311 272 ft 18 kts 191°
2026-04-18 06:21 56.22134 43.78267 272 ft 18 kts 191°
2026-04-18 06:21 56.22015 43.78226 272 ft 12 kts 190°
2026-04-18 06:22 56.21952 43.78276 271 ft 11 kts 116°
2026-04-18 06:22 56.21933 43.78409 271 ft 11 kts 102°
2026-04-18 06:22 56.21918 43.78544 271 ft 11 kts 99°
2026-04-18 06:22 56.21931 43.78682 271 ft 12 kts 84°
2026-04-18 06:23 56.21922 43.78815 271 ft 9 kts 100°
2026-04-18 06:23 56.21919 43.78837 271 ft 0 kts 100°